Regional Weather Roundup
Issued by NWS

Home | Current Version | Previous Version | Text Only | Print | Product List | Glossary On
Versions: 1 2 3 4 5 6 7 8 9 10 11 12 13 14 15 16 17 18 19 20 21 22 23 24 25 26 27 28 29 30 31 32 33 34 35 36 37 38 39 40 41 42 43 44 45 46 47 48 49 50
000
ASUS45 KABQ 230110
RWRNM
NEW MEXICO REGIONAL WEATHER ROUNDUP
NATIONAL WEATHER SERVICE ALBUQUERQUE NM
600 PM MST THU FEB 22 2018

NOTE: "FAIR" MEANS FEW OR NO CLOUDS BELOW 12,000 FEET AGL WITH NO
       SIGNIFICANT WEATHER OR OBSTRUCTIONS TO VISION.

      THIS PRODUCT IS RELEASED AS TWO VERSIONS.  ONE VERSION NEAR
      THE TOP OF THE HOUR CONTAINING PRELIMINARY DATA FROM ALBUQUERQUE
      AND OTHER STATIONS.  A FINAL VERSION WITH ADDITIONAL DATA IS
      ISSUED ABOUT 10 MINUTES AFTER THE HOUR.

NMZ501-503-504-510>518-230200-
NORTHWEST PLATEAU/NORTHCENTRAL MOUNTAINS

CITY           SKY/WX    TMP DP  RH WIND       PRES   REMARKS
FARMINGTON     FAIR      38   3  23 SW8       29.96S WCI  32
LOS ALAMOS     FAIR      31  12  44 SW9       30.03R WCI  23
SANTA FE       FAIR      33  15  47 NW6       30.02R WCI  28
TAOS           FAIR      25  12  58 SW5       30.06R WCI  19
ANGEL FIRE     FAIR      21   9  60 W12       30.00R WCI   9

$$
NMZ402-403-502-505>509-230200-
WESTCENTRAL MOUNTAINS/SOUTHWEST MOUNTAINS

CITY           SKY/WX    TMP DP  RH WIND       PRES   REMARKS
GALLUP         FAIR      34  12  40 SW13      30.00R WCI  25
GRANTS         FAIR      37   8  31 W13G24    30.02S WCI  28
SILVER CITY    FAIR      42  17  36 NW8       30.11R

$$
NMZ407-409-411-412-230200-
SOUTHERN DESERTS

CITY           SKY/WX    TMP DP  RH WIND       PRES   REMARKS
DEMING         FAIR      50  21  32 W10       30.09F
LAS CRUCES     FAIR      51  19  27 W14       30.10R
HOLLOMAN AFB   FAIR      53  19  26 S7        30.11R
ALAMOGORDO     FAIR      50  21  32 S6        30.10R
T OR C         FAIR      53  -1  11 W12G22    30.03R

$$
NMZ519>523-230200-
CENTRAL VALLEYS/CENTRAL HIGHLANDS

CITY           SKY/WX    TMP DP  RH WIND       PRES   REMARKS
ALBUQUERQUE    FAIR      46   9  22 NW6       30.02R
DOUBLE EAGLE   CLEAR     39   9  28 W8        30.02S WCI  34
MORIARTY ARPT  FAIR      40  13  33 W6        30.04R
CLINES CORNERS FAIR      33  12  41 W13       30.03  WCI  24
BELEN          FAIR      47  11  23 E3        30.01R
SOCORRO        FAIR      51   8  18 CALM      29.99S

$$
NMZ524>526-539-540-230200-
SOUTHCENTRAL MOUNTAINS

CITY           SKY/WX    TMP DP  RH WIND       PRES   REMARKS
RUIDOSO        NOT AVBL

$$
NMZ527>531-230200-
NORTHEAST HIGHLANDS/NORTHEAST PLAINS

CITY           SKY/WX    TMP DP  RH WIND       PRES   REMARKS
LAS VEGAS      FAIR      33  11  39 SW18      30.01R WCI  22
RATON          FAIR      33   5  30 SW17G25   29.96R WCI  22
CLAYTON        FAIR      44  11  26 SW14      29.96R

$$
NMZ532>537-230200-
EASTCENTRAL PLAINS

CITY           SKY/WX    TMP DP  RH WIND       PRES   REMARKS
SANTA ROSA     FAIR      45  18  33 NW9       30.00R
TUCUMCARI      FAIR      50  18  28 SW12      29.98R
CANNON AFB     FAIR      46  23  41 S7        30.05R
CLOVIS AIRPORT NOT AVBL

$$
NMZ028-029-538-230200-
SOUTHEAST PLAINS

CITY           SKY/WX    TMP DP  RH WIND       PRES   REMARKS
ROSWELL        FAIR      55  21  26 SW9       30.01R
ARTESIA        FAIR      57  21  24 SW15      30.05R
CARLSBAD       FAIR      48  30  49 S10       30.08R
HOBBS          CLEAR     46  30  53 SE12      30.10R


$$



USA.gov is the U.S. government's official web portal to all federal, state and local government web resources and services.